User: anonymous   Login
Location: Aytr�
(46.1357°N, 1.1145°W)
Time: 05:58:31
(UTC+00:00)
Language:

Nauka - Orbit

View from above orbital plane
View from above orbital plane
View from above satellite
View from above satellite

Ground track
Ground track

The orbit data is extracted from the following two-line orbital elements,

1 49044U 21066A   21291.53651337  .00006671  00000-0  13029-3 0  9992
2 49044  51.6435  92.8091 0003972 117.8876 318.9715 15.48738663307718
Epoch (UTC): 18 October 2021 12:52:34
Eccentricity: 0.0003972
inclination: 51.6435°
perigee height: 418 km
apogee height: 423 km
right ascension of ascending node: 92.8091°
argument of perigee: 117.8876°
revolutions per day: 15.48738663
mean anomaly at epoch: 318.9715°
orbit number at epoch: 30771

The dashed part of the orbit path shows where the satellite is in the earth's shadow,  

DLR